This demonstration page uses our WeatherBlox Daily Observations layout. Learn more.

Left ArrowRight Arrow

39.92423, -83.80882

Hourly Observations for March 3, 2020

Temp ( °F °C ) Dew Point ( °F °C ) Humidity (%) Winds ( mph kmh ) Pressure ( in mb ) Visibility ( mi km ) Precip ( " mm )
12:56 am 00:56 Cloudy with Mist and Fog 50 10 50 10 100 100 S 3 6 29.68 1005 4 6.43736 0.18 4.572
1:14 am 01:14 Cloudy with Nearby Thunderstorms 50 10 50 10 100 100 S 3 6 29.68 1005 4 6.43736 0 0
1:42 am 01:42 Cloudy with Nearby Thunderstorms 48 9 48 9 100 100 NNE 7 11 29.68 1005 1.75 2.816345 0.001 0.001
1:56 am 01:56 Cloudy with Light Rain 49 9.4 49 9.4 100 100 N 5 7 29.67 1005 1.75 2.816345 0 0
2:05 am 02:05 Cloudy with Light Thunderstorms 48 9 48 9 100 100 NNE 6 9 29.67 1005 1.25 2.011675 0 0
2:20 am 02:20 Cloudy with Heavy Rain 48 9 48 9 100 100 E 5 7 29.67 1005 1 1.60934 0 0
2:32 am 02:32 Cloudy with Light Rain 48 9 48 9 100 100 SE 6 9 29.66 1004 1.75 2.816345 0 0
2:34 am 02:34 Cloudy with Light Rain 48 9 48 9 100 100 SE 5 7 29.66 1004 1.75 2.816345 0 0
2:39 am 02:39 Cloudy with Light Rain 48 9 48 9 100 100 S 5 7 29.66 1004 2 3.21868 0 0
2:56 am 02:56 Cloudy with Heavy Rain 50 10 50 10 100 100 SSE 7 11 29.64 1004 5 8.0467 0 0
3:41 am 03:41 Cloudy with Heavy Rain 50 10 50 10 100 100 Calm 29.63 1003 2 3.21868 0 0
3:49 am 03:49 Cloudy with Heavy Rain 50 10 50 10 100 100 Calm 29.63 1003 1.75 2.816345 0 0
3:56 am 03:56 Cloudy with Nearby Thunderstorms 50 10 50 10 100 100 N 3 6 29.62 1003 1.75 2.816345 0 0
4:00 am 04:00 Cloudy with Nearby Thunderstorms 50 10 50 10 100 100 NW 5 7 29.62 1003 3 4.82802 0 0
4:05 am 04:05 Cloudy with Nearby Thunderstorms 50 10 50 10 100 100 WNW 6 9 29.62 1003 5 8.0467 0 0
4:16 am 04:16 Cloudy with Rain 50 10 50 10 100 100 W 6 9 29.62 1003 7 11.26538 0 0
4:32 am 04:32 Cloudy with Rain 50 10 50 10 100 100 NNW 9 15 29.63 1003 6 9.65604 0 0
4:46 am 04:46 Cloudy with Heavy Rain 48 9 48 9 100 100 WNW 6 9 29.63 1003 8 12.87472 0 0
4:56 am 04:56 Cloudy with Rain 48 8.9 48 8.9 100 100 Calm 29.62 1003 10 16.0934 0 0
5:56 am 05:56 Cloudy 48 8.9 48 8.9 100 100 SE 8 13 29.58 1002 10 16.0934 0 0
6:56 am 06:56 Mostly Cloudy 48 8.9 48 8.9 100 100 SSE 8 13 29.57 1001 10 16.0934 0 0
7:23 am 07:23 Cloudy 48 9 48 9 100 100 S 7 11 29.58 1002 10 16.0934 0 0
7:56 am 07:56 Cloudy 48 8.9 48 8.9 100 100 S 7 11 29.59 1002 10 16.0934 0 0
8:40 am 08:40 Cloudy with Light Rain 48 9 48 9 100 100 S 10 17 29.6 1002 10 16.0934 0 0
8:52 am 08:52 Cloudy 50 10 50 10 100 100 S 9 15 29.58 1002 10 16.0934 0 0
8:56 am 08:56 Cloudy 50 10 50 10 100 100 SSW 10 17 29.59 1002 10 16.0934 0 0
9:46 am 09:46 Cloudy 52 11 52 11 100 100 SSW 16 26 29.56 1001 10 16.0934 0 0
9:56 am 09:56 Cloudy with Light Rain 51 10.6 51 10.6 100 100 SW 16 26 29.56 1001 10 16.0934 0 0
10:56 am 10:56 Cloudy with Light Rain 51 10.6 51 10.6 100 100 SW 16 26 29.56 1001 2.5 4.02335 0 0
11:05 am 11:05 Cloudy with Rain 52 11 52 11 100 100 WSW 17 28 29.57 1001 5 8.0467 0 0
11:15 am 11:15 Cloudy with Light Rain 48 9 48 9 100 100 W 20 31 29.59 1002 1.75 2.816345 0 0
11:43 am 11:43 Cloudy with Light Rain 46 8 46 8 100 100 WNW 18 30 29.61 1003 3 4.82802 0 0
11:56 am 11:56 Cloudy with Mist and Fog 47 8.3 47 8.3 100 100 W 14 22 29.6 1002 5 8.0467 0 0
12:37 pm 12:37 Cloudy 46 8 46 8 100 100 W 15 24 29.62 1003 10 16.0934 0 0
12:56 pm 12:56 Cloudy 47 8.3 47 8.3 100 100 WNW 14 22 29.61 1003 10 16.0934 0 0
1:07 pm 13:07 Cloudy 48 9 48 9 100 100 W 16 26 29.62 1003 10 16.0934 0 0
1:22 pm 13:22 Cloudy 48 9 48 9 100 100 W 17 28 29.62 1003 10 16.0934 0 0
1:56 pm 13:56 Mostly Cloudy 51 10.6 43 6.1 74 74 W 21 33 29.59 1002 10 16.0934 0 0
2:56 pm 14:56 Mostly Sunny 53 11.7 42 5.6 66 66 W 20 31 29.59 1002 10 16.0934 0 0
3:56 pm 15:56 Mostly Cloudy 53 11.7 39 3.9 59 59 WSW 25 41 29.61 1003 10 16.0934 0 0
4:56 pm 16:56 Mostly Cloudy 52 11.1 38 3.3 59 59 WSW 25 41 29.61 1003 10 16.0934 0 0
5:56 pm 17:56 Mostly Cloudy 47 8.3 39 3.9 74 74 W 22 35 29.67 1005 10 16.0934 0 0
6:56 pm 18:56 Mostly Clear 47 8.3 33 0.6 59 59 W 18 30 29.72 1007 10 16.0934 0 0
7:56 pm 19:56 Cloudy 46 7.8 34 1.1 63 63 W 15 24 29.78 1008 10 16.0934 0 0
8:56 pm 20:56 Mostly Clear 43 6.1 34 1.1 71 71 W 10 17 29.8 1009 10 16.0934 0 0
9:56 pm 21:56 Clear 41 5 33 0.6 73 73 W 10 17 29.84 1011 10 16.0934 0 0
10:56 pm 22:56 Clear 42 5.6 33 0.6 71 71 W 13 20 29.86 1011 10 16.0934 0 0
11:56 pm 23:56 Clear 40 4.4 33 0.6 77 77 W 14 22 29.9 1013 10 16.0934 0 0

Powered by AerisWeather